Time,TemperatureF,DewpointF,PressureIn,WindDirection,WindDirectionDegrees,WindSpeedMPH,WindSpeedGustMPH,Humidity,HourlyPrecipIn,Conditions,Clouds,dailyrainin,SoftwareType,DateUTC
2013-06-06 00:03:00,51.0,45.0,30.15,NE,47,0.0,-999.0,81,-99.99,,,-99.99,,2013-06-06 04:03:00,
2013-06-06 00:13:00,51.0,45.0,30.15,NE,47,0.0,-999.0,81,-99.99,,,-99.99,,2013-06-06 04:13:00,
2013-06-06 00:23:00,51.0,46.0,30.15,NE,47,0.0,-999.0,82,-99.99,,,-99.99,,2013-06-06 04:23:00,
2013-06-06 00:33:00,51.0,46.0,30.15,NE,42,0.0,-999.0,83,-99.99,,,-99.99,,2013-06-06 04:33:00,
2013-06-06 00:42:00,51.0,46.0,30.15,NE,42,0.0,-999.0,83,-99.99,,,-99.99,,2013-06-06 04:42:00,
2013-06-06 00:53:00,51.0,46.0,30.14,NE,42,0.0,-999.0,84,-99.99,,,-99.99,,2013-06-06 04:53:00,
2013-06-06 01:02:00,50.0,45.0,30.14,NE,38,0.0,-999.0,84,-99.99,,,-99.99,,2013-06-06 05:02:00,
2013-06-06 01:12:00,50.0,45.0,30.14,NE,38,0.0,-999.0,84,-99.99,,,-99.99,,2013-06-06 05:12:00,
2013-06-06 01:23:00,50.0,45.0,30.14,NE,38,0.0,-999.0,84,-99.99,,,-99.99,,2013-06-06 05:23:00,
2013-06-06 01:32:00,50.0,46.0,30.14,NW,325,1.0,-999.0,85,-99.99,,,-99.99,,2013-06-06 05:32:00,
2013-06-06 01:42:00,50.0,46.0,30.14,NW,325,1.0,-999.0,85,-99.99,,,-99.99,,2013-06-06 05:42:00,
2013-06-06 01:52:00,51.0,47.0,30.15,NW,325,0.0,-999.0,85,-99.99,,,-99.99,,2013-06-06 05:52:00,
2013-06-06 02:02:00,51.0,47.0,30.15,NW,325,0.0,-999.0,85,-99.99,,,-99.99,,2013-06-06 06:02:00,
2013-06-06 02:12:00,51.0,47.0,30.15,NW,325,0.0,-999.0,85,-99.99,,,-99.99,,2013-06-06 06:12:00,
2013-06-06 02:22:00,51.0,47.0,30.15,NW,325,0.0,-999.0,85,-99.99,,,-99.99,,2013-06-06 06:22:00,
2013-06-06 02:33:00,51.0,47.0,30.15,NW,325,0.0,-999.0,85,-99.99,,,-99.99,,2013-06-06 06:33:00,
2013-06-06 02:42:00,51.0,47.0,30.15,NW,325,0.0,-999.0,85,-99.99,,,-99.99,,2013-06-06 06:42:00,
2013-06-06 02:52:00,51.0,47.0,30.15,NW,325,0.0,-999.0,85,-99.99,,,-99.99,,2013-06-06 06:52:00,
2013-06-06 03:02:00,51.0,47.0,30.15,NW,325,0.0,-999.0,85,-99.99,,,-99.99,,2013-06-06 07:02:00,
2013-06-06 03:12:00,51.0,47.0,30.15,NW,325,0.0,-999.0,85,-99.99,,,-99.99,,2013-06-06 07:12:00,
2013-06-06 03:22:00,51.0,47.0,30.14,NW,325,1.0,-999.0,85,-99.99,,,-99.99,,2013-06-06 07:22:00,
2013-06-06 03:32:00,51.0,47.0,30.14,NW,325,1.0,-999.0,86,-99.99,,,-99.99,,2013-06-06 07:32:00,
2013-06-06 03:42:00,51.0,47.0,30.14,NW,325,1.0,-999.0,86,-99.99,,,-99.99,,2013-06-06 07:42:00,
2013-06-06 03:52:00,50.0,46.0,30.14,NW,326,2.0,-999.0,86,-99.99,,,-99.99,,2013-06-06 07:52:00,
2013-06-06 04:02:00,50.0,46.0,30.14,ESE,111,1.0,-999.0,86,-99.99,,,-99.99,,2013-06-06 08:02:00,
2013-06-06 04:12:00,50.0,46.0,30.14,ESE,111,1.0,-999.0,86,-99.99,,,-99.99,,2013-06-06 08:12:00,
2013-06-06 04:22:00,52.0,46.0,30.14,SSW,192,2.0,-999.0,79,-99.99,,,-99.99,,2013-06-06 08:22:00,
2013-06-06 04:32:00,54.0,47.0,30.12,ESE,113,1.0,-999.0,77,-99.99,,,-99.99,,2013-06-06 08:32:00,
2013-06-06 04:42:00,54.0,48.0,30.13,NE,51,1.0,-999.0,79,-99.99,,,-99.99,,2013-06-06 08:42:00,
2013-06-06 04:52:00,54.0,48.0,30.13,NE,51,1.0,-999.0,79,-99.99,,,-99.99,,2013-06-06 08:52:00,
2013-06-06 05:02:00,53.0,46.0,30.13,NNE,13,1.0,-999.0,78,-99.99,,,-99.99,,2013-06-06 09:02:00,
2013-06-06 05:12:00,53.0,46.0,30.13,NNE,13,1.0,-999.0,78,-99.99,,,-99.99,,2013-06-06 09:12:00,
2013-06-06 05:22:00,54.0,47.0,30.12,NNE,13,2.0,-999.0,77,-99.99,,,-99.99,,2013-06-06 09:22:00,
2013-06-06 05:33:00,55.0,45.0,30.12,East,89,2.0,-999.0,68,-99.99,,,-99.99,,2013-06-06 09:33:00,
2013-06-06 05:43:00,55.0,45.0,30.12,East,89,2.0,-999.0,68,-99.99,,,-99.99,,2013-06-06 09:43:00,
2013-06-06 05:53:00,56.0,44.0,30.12,South,176,2.0,-999.0,65,-99.99,,,-99.99,,2013-06-06 09:53:00,
2013-06-06 06:03:00,57.0,45.0,30.13,South,181,1.0,-999.0,65,-99.99,,,-99.99,,2013-06-06 10:03:00,
2013-06-06 06:12:00,57.0,45.0,30.13,South,181,1.0,-999.0,65,-99.99,,,-99.99,,2013-06-06 10:12:00,
2013-06-06 06:23:00,56.0,45.0,30.12,South,181,0.0,-999.0,67,-99.99,,,-99.99,,2013-06-06 10:23:00,
2013-06-06 06:33:00,55.0,45.0,30.12,WSW,244,3.0,-999.0,69,-99.99,,,-99.99,,2013-06-06 10:33:00,
2013-06-06 06:42:00,55.0,45.0,30.12,WSW,244,3.0,-999.0,69,-99.99,,,-99.99,,2013-06-06 10:42:00,
2013-06-06 06:52:00,56.0,46.0,30.12,North,5,1.0,-999.0,69,-99.99,,,-99.99,,2013-06-06 10:52:00,
2013-06-06 07:02:00,56.0,46.0,30.14,NW,325,2.0,-999.0,69,-99.99,,,-99.99,,2013-06-06 11:02:00,
2013-06-06 07:12:00,56.0,46.0,30.14,NW,325,2.0,-999.0,69,-99.99,,,-99.99,,2013-06-06 11:12:00,
2013-06-06 07:23:00,56.0,47.0,30.14,NW,325,1.0,-999.0,72,-99.99,,,-99.99,,2013-06-06 11:23:00,
2013-06-06 07:32:00,57.0,42.0,30.13,SW,236,2.0,-999.0,57,-99.99,,,-99.99,,2013-06-06 11:32:00,
2013-06-06 07:42:00,57.0,42.0,30.13,SW,236,2.0,-999.0,57,-99.99,,,-99.99,,2013-06-06 11:42:00,
2013-06-06 07:52:00,58.0,41.0,30.12,SSE,156,3.0,-999.0,53,-99.99,,,-99.99,,2013-06-06 11:52:00,
2013-06-06 08:03:00,59.0,41.0,30.12,SSE,161,4.0,-999.0,51,-99.99,,,-99.99,,2013-06-06 12:03:00,
2013-06-06 08:13:00,59.0,41.0,30.12,SSE,161,4.0,-999.0,51,-99.99,,,-99.99,,2013-06-06 12:13:00,
2013-06-06 08:23:00,59.0,40.0,30.12,SSE,148,6.0,-999.0,49,-99.99,,,-99.99,,2013-06-06 12:23:00,
2013-06-06 08:33:00,60.0,41.0,30.12,South,190,6.0,-999.0,50,-99.99,,,-99.99,,2013-06-06 12:33:00,
2013-06-06 08:43:00,60.0,41.0,30.12,South,190,6.0,-999.0,50,-99.99,,,-99.99,,2013-06-06 12:43:00,
2013-06-06 08:52:00,60.0,41.0,30.11,SSE,157,7.0,-999.0,49,-99.99,,,-99.99,,2013-06-06 12:52:00,
2013-06-06 09:03:00,61.0,41.0,30.11,SSW,213,5.0,-999.0,48,-99.99,,,-99.99,,2013-06-06 13:03:00,
2013-06-06 09:13:00,61.0,41.0,30.11,SSW,213,5.0,-999.0,48,-99.99,,,-99.99,,2013-06-06 13:13:00,
2013-06-06 09:23:00,61.0,41.0,30.10,South,170,5.0,-999.0,47,-99.99,,,-99.99,,2013-06-06 13:23:00,
2013-06-06 09:33:00,63.0,41.0,30.10,South,173,7.0,-999.0,45,-99.99,,,-99.99,,2013-06-06 13:33:00,
2013-06-06 09:43:00,63.0,41.0,30.10,South,173,7.0,-999.0,45,-99.99,,,-99.99,,2013-06-06 13:43:00,
2013-06-06 09:52:00,63.0,42.0,30.10,ESE,110,6.0,-999.0,46,-99.99,,,-99.99,,2013-06-06 13:52:00,
2013-06-06 10:03:00,62.0,43.0,30.10,SSW,192,3.0,-999.0,50,-99.99,,,-99.99,,2013-06-06 14:03:00,
2013-06-06 10:13:00,62.0,43.0,30.10,SSW,192,3.0,-999.0,50,-99.99,,,-99.99,,2013-06-06 14:13:00,
2013-06-06 10:23:00,62.0,43.0,30.10,SSW,192,3.0,-999.0,50,-99.99,,,-99.99,,2013-06-06 14:23:00,
2013-06-06 10:33:00,62.0,41.0,30.09,South,190,5.0,-999.0,46,-99.99,,,-99.99,,2013-06-06 14:33:00,
2013-06-06 10:43:00,62.0,41.0,30.09,South,190,5.0,-999.0,46,-99.99,,,-99.99,,2013-06-06 14:43:00,
2013-06-06 10:53:00,62.0,41.0,30.09,SSE,157,5.0,-999.0,46,-99.99,,,-99.99,,2013-06-06 14:53:00,
2013-06-06 11:03:00,62.0,41.0,30.09,SE,146,6.0,-999.0,46,-99.99,,,-99.99,,2013-06-06 15:03:00,
2013-06-06 11:13:00,62.0,41.0,30.09,SE,146,6.0,-999.0,46,-99.99,,,-99.99,,2013-06-06 15:13:00,
2013-06-06 11:23:00,63.0,41.0,30.08,SSE,153,4.0,-999.0,45,-99.99,,,-99.99,,2013-06-06 15:23:00,
2013-06-06 11:33:00,63.0,42.0,30.08,SSE,167,6.0,-999.0,46,-99.99,,,-99.99,,2013-06-06 15:33:00,
2013-06-06 11:43:00,63.0,42.0,30.08,SSE,167,6.0,-999.0,46,-99.99,,,-99.99,,2013-06-06 15:43:00,
2013-06-06 11:53:00,63.0,42.0,30.08,ESE,114,5.0,-999.0,46,-99.99,,,-99.99,,2013-06-06 15:53:00,
2013-06-06 12:03:00,63.0,42.0,30.08,SE,128,4.0,-999.0,46,-99.99,,,-99.99,,2013-06-06 16:03:00,
2013-06-06 12:13:00,63.0,42.0,30.08,SE,128,4.0,-999.0,46,-99.99,,,-99.99,,2013-06-06 16:13:00,
2013-06-06 12:23:00,63.0,44.0,30.08,ESE,119,3.0,-999.0,49,-99.99,,,-99.99,,2013-06-06 16:23:00,
2013-06-06 12:33:00,63.0,44.0,30.08,ENE,76,2.0,-999.0,50,-99.99,,,-99.99,,2013-06-06 16:33:00,
2013-06-06 12:44:00,63.0,44.0,30.08,ENE,76,2.0,-999.0,50,-99.99,,,-99.99,,2013-06-06 16:44:00,
2013-06-06 12:52:00,62.0,45.0,30.07,SSE,158,3.0,-999.0,53,-99.99,,,-99.99,,2013-06-06 16:52:00,
2013-06-06 13:03:00,63.0,46.0,30.06,SE,136,2.0,-999.0,54,-99.99,,,-99.99,,2013-06-06 17:03:00,
2013-06-06 13:13:00,63.0,46.0,30.06,SE,136,2.0,-999.0,54,-99.99,,,-99.99,,2013-06-06 17:13:00,
2013-06-06 13:23:00,63.0,46.0,30.05,ENE,71,2.0,-999.0,54,-99.99,,,-99.99,,2013-06-06 17:23:00,
2013-06-06 13:33:00,64.0,47.0,30.05,SE,136,2.0,-999.0,54,-99.99,,,-99.99,,2013-06-06 17:33:00,
2013-06-06 13:43:00,64.0,47.0,30.05,SE,136,2.0,-999.0,54,-99.99,,,-99.99,,2013-06-06 17:43:00,
2013-06-06 13:52:00,65.0,47.0,30.04,SE,146,4.0,-999.0,53,-99.99,,,-99.99,,2013-06-06 17:52:00,
2013-06-06 14:03:00,66.0,47.0,30.04,SSE,168,5.0,-999.0,50,-99.99,,,-99.99,,2013-06-06 18:03:00,
2013-06-06 14:13:00,66.0,47.0,30.04,SSE,168,5.0,-999.0,50,-99.99,,,-99.99,,2013-06-06 18:13:00,
2013-06-06 14:23:00,66.0,47.0,30.03,SE,140,5.0,-999.0,51,-99.99,,,-99.99,,2013-06-06 18:23:00,
2013-06-06 14:33:00,66.0,48.0,30.04,South,176,5.0,-999.0,52,-99.99,,,-99.99,,2013-06-06 18:33:00,
2013-06-06 14:43:00,66.0,48.0,30.04,South,176,5.0,-999.0,52,-99.99,,,-99.99,,2013-06-06 18:43:00,
2013-06-06 14:53:00,66.0,48.0,30.04,South,176,5.0,-999.0,52,-99.99,,,-99.99,,2013-06-06 18:53:00,
2013-06-06 15:03:00,64.0,49.0,30.04,SSE,161,7.0,-999.0,58,-99.99,,,-99.99,,2013-06-06 19:03:00,
2013-06-06 15:13:00,64.0,49.0,30.04,SSE,161,7.0,-999.0,58,-99.99,,,-99.99,,2013-06-06 19:13:00,
2013-06-06 15:23:00,64.0,48.0,30.04,SSE,163,7.0,-999.0,57,-99.99,,,-99.99,,2013-06-06 19:23:00,
2013-06-06 15:33:00,64.0,49.0,30.04,ESE,111,7.0,-999.0,59,-99.99,,,-99.99,,2013-06-06 19:33:00,
2013-06-06 15:43:00,64.0,49.0,30.04,ESE,111,7.0,-999.0,59,-99.99,,,-99.99,,2013-06-06 19:43:00,
2013-06-06 15:53:00,64.0,47.0,30.04,ESE,113,6.0,-999.0,55,-99.99,,,-99.99,,2013-06-06 19:53:00,
2013-06-06 16:03:00,63.0,46.0,30.05,SE,142,9.0,-999.0,54,-99.99,,,-99.99,,2013-06-06 20:03:00,
2013-06-06 16:13:00,63.0,46.0,30.05,SE,142,9.0,-999.0,54,-99.99,,,-99.99,,2013-06-06 20:13:00,
2013-06-06 16:23:00,63.0,48.0,30.04,SE,144,8.0,-999.0,57,-99.99,,,-99.99,,2013-06-06 20:23:00,
2013-06-06 16:33:00,62.0,47.0,30.04,SSE,160,8.0,-999.0,59,-99.99,,,-99.99,,2013-06-06 20:33:00,
2013-06-06 16:43:00,62.0,47.0,30.04,SSE,160,8.0,-999.0,59,-99.99,,,-99.99,,2013-06-06 20:43:00,
2013-06-06 16:53:00,61.0,48.0,30.04,ESE,123,8.0,-999.0,62,-99.99,,,-99.99,,2013-06-06 20:53:00,
2013-06-06 17:03:00,60.0,47.0,30.04,ESE,123,8.0,-999.0,62,-99.99,,,-99.99,,2013-06-06 21:03:00,
2013-06-06 17:13:00,60.0,47.0,30.04,ESE,123,8.0,-999.0,62,-99.99,,,-99.99,,2013-06-06 21:13:00,
2013-06-06 17:23:00,59.0,48.0,30.05,South,186,9.0,-999.0,66,-99.99,,,-99.99,,2013-06-06 21:23:00,
2013-06-06 17:33:00,57.0,48.0,30.04,SSE,165,5.0,-999.0,72,-99.99,,,-99.99,,2013-06-06 21:33:00,
2013-06-06 17:44:00,57.0,48.0,30.04,SSE,165,5.0,-999.0,72,-99.99,,,-99.99,,2013-06-06 21:44:00,
2013-06-06 17:53:00,56.0,48.0,30.05,South,174,5.0,-999.0,74,-99.99,,,-99.99,,2013-06-06 21:53:00,
2013-06-06 18:03:00,56.0,48.0,30.05,SSE,161,4.0,-999.0,74,-99.99,,,-99.99,,2013-06-06 22:03:00,
2013-06-06 18:13:00,56.0,48.0,30.05,SSE,161,4.0,-999.0,74,-99.99,,,-99.99,,2013-06-06 22:13:00,
2013-06-06 18:23:00,55.0,48.0,30.04,ESE,111,2.0,-999.0,77,-99.99,,,-99.99,,2013-06-06 22:23:00,
2013-06-06 18:33:00,54.0,48.0,30.04,ESE,111,1.0,-999.0,79,-99.99,,,-99.99,,2013-06-06 22:33:00,
2013-06-06 18:43:00,54.0,48.0,30.04,ESE,111,1.0,-999.0,79,-99.99,,,-99.99,,2013-06-06 22:43:00,
2013-06-06 18:53:00,54.0,49.0,30.03,ESE,110,1.0,-999.0,82,-99.99,,,-99.99,,2013-06-06 22:53:00,
2013-06-06 19:03:00,54.0,50.0,30.03,ENE,73,1.0,-999.0,85,-99.99,,,-99.99,,2013-06-06 23:03:00,
2013-06-06 19:13:00,54.0,50.0,30.03,ENE,73,1.0,-999.0,85,-99.99,,,-99.99,,2013-06-06 23:13:00,
2013-06-06 19:22:00,53.0,49.0,30.03,ENE,75,1.0,-999.0,87,-99.99,,,-99.99,,2013-06-06 23:22:00,
2013-06-06 19:33:00,54.0,51.0,30.03,SE,136,1.0,-999.0,88,-99.99,,,-99.99,,2013-06-06 23:33:00,
2013-06-06 19:43:00,54.0,51.0,30.03,SE,136,1.0,-999.0,88,-99.99,,,-99.99,,2013-06-06 23:43:00,
2013-06-06 19:52:00,54.0,51.0,30.04,SE,140,1.0,-999.0,88,-99.99,,,-99.99,,2013-06-06 23:52:00,
2013-06-06 20:02:00,54.0,50.0,30.03,ESE,111,3.0,-999.0,87,-99.99,,,-99.99,,2013-06-07 00:02:00,
2013-06-06 20:13:00,54.0,50.0,30.03,ESE,111,3.0,-999.0,87,-99.99,,,-99.99,,2013-06-07 00:13:00,
2013-06-06 20:22:00,53.0,49.0,30.03,ESE,112,2.0,-999.0,87,-99.99,,,-99.99,,2013-06-07 00:22:00,
2013-06-06 20:32:00,53.0,49.0,30.03,ENE,71,2.0,-999.0,87,-99.99,,,-99.99,,2013-06-07 00:32:00,
2013-06-06 20:42:00,53.0,49.0,30.03,ENE,71,2.0,-999.0,87,-99.99,,,-99.99,,2013-06-07 00:42:00,
2013-06-06 20:52:00,52.0,49.0,30.03,NE,55,3.0,-999.0,88,-99.99,,,-99.99,,2013-06-07 00:52:00,
2013-06-06 21:03:00,52.0,49.0,30.03,East,83,2.0,-999.0,89,-99.99,,,-99.99,,2013-06-07 01:03:00,
2013-06-06 21:12:00,52.0,49.0,30.03,East,83,2.0,-999.0,89,-99.99,,,-99.99,,2013-06-07 01:12:00,
2013-06-06 21:22:00,51.0,48.0,30.03,ESE,103,3.0,-999.0,89,-99.99,,,-99.99,,2013-06-07 01:22:00,
2013-06-06 21:32:00,51.0,48.0,30.03,ESE,115,2.0,-999.0,90,-99.99,,,-99.99,,2013-06-07 01:32:00,
2013-06-06 21:42:00,51.0,48.0,30.03,ESE,115,2.0,-999.0,90,-99.99,,,-99.99,,2013-06-07 01:42:00,
2013-06-06 21:52:00,51.0,48.0,30.02,ESE,108,3.0,-999.0,91,-99.99,,,-99.99,,2013-06-07 01:52:00,
2013-06-06 22:02:00,51.0,48.0,30.03,South,171,2.0,-999.0,91,-99.99,,,-99.99,,2013-06-07 02:02:00,
2013-06-06 22:12:00,51.0,48.0,30.03,South,171,2.0,-999.0,91,-99.99,,,-99.99,,2013-06-07 02:12:00,
2013-06-06 22:22:00,51.0,48.0,30.02,NE,51,2.0,-999.0,91,-99.99,,,-99.99,,2013-06-07 02:22:00,
2013-06-06 22:32:00,51.0,48.0,30.01,East,81,3.0,-999.0,90,-99.99,,,-99.99,,2013-06-07 02:32:00,
2013-06-06 22:42:00,51.0,48.0,30.01,East,81,3.0,-999.0,90,-99.99,,,-99.99,,2013-06-07 02:42:00,
2013-06-06 22:52:00,51.0,48.0,30.01,NE,54,2.0,-999.0,91,-99.99,,,-99.99,,2013-06-07 02:52:00,
2013-06-06 23:02:00,52.0,49.0,30.01,ENE,71,2.0,-999.0,91,-99.99,,,-99.99,,2013-06-07 03:02:00,
2013-06-06 23:12:00,52.0,49.0,30.01,ENE,71,2.0,-999.0,91,-99.99,,,-99.99,,2013-06-07 03:12:00,
2013-06-06 23:22:00,52.0,49.0,30.01,East,88,2.0,-999.0,90,-99.99,,,-99.99,,2013-06-07 03:22:00,
2013-06-06 23:33:00,52.0,49.0,30.00,ESE,106,2.0,-999.0,91,-99.99,,,-99.99,,2013-06-07 03:33:00,
2013-06-06 23:43:00,52.0,49.0,30.00,ESE,106,2.0,-999.0,91,-99.99,,,-99.99,,2013-06-07 03:43:00,
2013-06-06 23:53:00,52.0,49.0,29.99,ENE,74,3.0,-999.0,91,-99.99,,,-99.99,,2013-06-07 03:53:00,